Date String (YYYY-MM-DD hh:mm:ss) UTC,Instrument flags,Ambient pressure (hPa),Sample flow (lpm),Bypass flow (lpm),Sample temperature (°C),Ambient temperature (°C),ASC tube jacket temperature (°C),LED temperature (°C),Box temperature (°C),Sample RH (%),Span deviation,Mass concentration (μg/m³),Mass concentration (μg/m³),Mass concentration (μg/m³)
DateTimeUTC,F1_M11,P_M11,Q1_M11,Q2_M11,T1_M11,T2_M11,T3_M11,T4_M11,T5_M11,U1_M11,ZSPAN_M11,X2_M11,X0_M11,X1_M11
2022-05-18 04:00:00,,0826.7,5.00,0.00,29.5,28.0,00.0,38.6,31.4,18.0,0000.0,0004.30,0010.68,0003.08
2022-05-18 04:01:00,,0826.7,5.00,0.00,29.6,28.2,00.0,38.6,31.4,18.0,0000.0,0004.33,0010.90,0003.11
2022-05-18 04:02:00,,0826.7,4.99,0.00,29.6,28.3,00.0,38.6,31.4,18.0,0000.0,0004.28,0010.70,0003.14
2022-05-18 04:03:00,,0826.7,5.00,0.00,29.6,28.3,00.0,38.6,31.5,18.0,0000.0,0004.27,0010.64,0003.13
2022-05-18 04:04:00,,0826.7,5.02,0.00,29.6,28.4,00.0,38.6,31.5,18.0,0000.0,0004.29,0010.37,0003.11
2022-05-18 04:05:00,,0826.8,5.01,0.00,29.6,28.5,00.0,38.6,31.5,18.0,0000.0,0004.30,0009.69,0003.10
2022-05-18 04:06:00,,0826.8,5.00,0.00,29.7,28.5,00.0,38.6,31.5,18.1,0000.0,0004.31,0010.08,0003.10
2022-05-18 04:07:00,,0826.8,5.00,0.00,29.7,28.6,00.0,38.7,31.6,18.1,0000.0,0004.29,0010.50,0003.11
2022-05-18 04:08:00,,0826.8,5.00,0.00,29.7,28.6,00.0,38.7,31.6,18.1,0000.0,0004.22,0010.36,0003.10
2022-05-18 04:09:00,,0826.8,4.99,0.00,29.7,28.7,00.0,38.7,31.6,18.2,0000.0,0004.23,0011.29,0003.11
2022-05-18 04:10:00,,0826.9,5.01,0.00,29.8,28.7,00.0,38.7,31.7,18.2,0000.0,0004.25,0012.26,0003.10
2022-05-18 04:11:00,,0827.1,5.00,0.00,29.8,28.7,00.0,38.7,31.7,18.2,0000.0,0004.18,0012.24,0003.08
2022-05-18 04:12:00,,0827.0,5.01,0.00,29.8,28.8,00.0,38.7,31.7,18.3,0000.0,0004.15,0012.23,0003.05
2022-05-18 04:13:00,,0826.8,5.00,0.00,29.8,28.8,00.0,38.8,31.7,18.3,0000.0,0004.16,0012.75,0003.01
2022-05-18 04:14:00,,0826.8,5.00,0.00,29.9,28.8,00.0,38.8,31.7,18.3,0000.0,0004.16,0013.54,0003.00
2022-05-18 04:15:00,,0826.8,4.99,0.00,29.9,28.9,00.0,38.8,31.8,18.3,0000.0,0004.16,0013.51,0002.99
2022-05-18 04:16:00,,0826.9,5.00,0.00,29.9,28.7,00.0,38.8,31.7,18.3,0000.0,0004.13,0013.13,0002.97
2022-05-18 04:17:00,,0826.9,5.00,0.00,29.9,26.6,00.0,38.8,31.7,18.3,0000.0,0004.06,0012.72,0002.95
2022-05-18 04:18:00,,0826.9,5.00,0.00,29.8,25.3,00.0,38.7,31.5,18.4,0000.0,0004.05,0012.26,0002.93
2022-05-18 04:19:00,,0827.0,5.00,0.00,29.8,25.6,00.0,38.7,31.4,18.5,0000.0,0004.04,0013.21,0002.90
2022-05-18 04:20:00,,0827.0,5.00,0.00,29.6,26.0,00.0,38.7,31.3,18.5,0000.0,0004.00,0012.90,0002.88
2022-05-18 04:21:00,,0827.0,4.98,0.00,29.6,26.4,00.0,38.7,31.3,18.5,0000.0,0003.95,0012.03,0002.85
2022-05-18 04:22:00,,0827.0,5.01,0.00,29.6,26.8,00.0,38.7,31.3,18.6,0000.0,0003.95,0011.87,0002.79
2022-05-18 04:23:00,,0827.1,5.01,0.00,29.6,27.1,00.0,38.6,31.3,18.7,0000.0,0003.93,0011.76,0002.76
2022-05-18 04:24:00,,0827.1,5.00,0.00,29.6,27.4,00.0,38.6,31.3,18.7,0000.0,0003.91,0011.57,0002.75
2022-05-18 04:25:00,,0827.1,5.00,0.00,29.6,27.6,00.0,38.6,31.4,18.7,0000.0,0003.85,0010.53,0002.74
2022-05-18 04:26:00,,0827.1,5.01,0.00,29.6,27.8,00.0,38.6,31.4,18.7,0000.0,0003.77,0010.59,0002.70
2022-05-18 04:27:00,,0827.1,5.00,0.00,29.6,28.0,00.0,38.6,31.4,18.7,0000.0,0003.73,0010.81,0002.67
2022-05-18 04:28:00,,0827.1,5.00,0.00,29.6,28.1,00.0,38.6,31.4,18.7,0000.0,0003.76,0010.89,0002.65
2022-05-18 04:29:00,,0827.2,5.00,0.00,29.6,28.2,00.0,38.6,31.5,18.7,0000.0,0003.74,0010.74,0002.62
2022-05-18 04:30:00,,0827.4,5.01,0.00,29.6,28.3,00.0,38.7,31.5,18.8,0000.0,0003.72,0009.81,0002.60
2022-05-18 04:31:00,,0827.4,5.01,0.00,29.6,28.3,00.0,38.7,31.5,18.8,0000.0,0003.72,0009.54,0002.59
2022-05-18 04:32:00,,0827.2,4.99,0.00,29.7,28.4,00.0,38.7,31.5,18.8,0000.0,0003.73,0009.48,0002.59
2022-05-18 04:33:00,,0827.1,5.00,0.00,29.7,28.4,00.0,38.7,31.5,18.8,0000.0,0003.73,0009.19,0002.62
2022-05-18 04:34:00,,0827.1,5.00,0.00,29.7,28.5,00.0,38.7,31.6,18.8,0000.0,0003.73,0009.18,0002.64
2022-05-18 04:35:00,,0827.4,5.01,0.00,29.7,28.5,00.0,38.7,31.6,18.9,0000.0,0003.78,0010.34,0002.63
2022-05-18 04:36:00,,0827.5,5.00,0.00,29.7,28.6,00.0,38.7,31.6,18.9,0000.0,0003.80,0010.64,0002.60
2022-05-18 04:37:00,,0827.4,4.99,0.00,29.8,28.6,00.0,38.7,31.6,18.8,0000.0,0003.80,0010.30,0002.60
2022-05-18 04:38:00,,0827.6,5.00,0.00,29.8,28.7,00.0,38.7,31.7,18.7,0000.0,0003.79,0009.93,0002.60
2022-05-18 04:39:00,,0827.7,5.02,0.00,29.8,28.7,00.0,38.8,31.7,18.7,0000.0,0003.76,0010.21,0002.59
2022-05-18 04:40:00,,0827.6,5.00,0.00,29.8,28.7,00.0,38.8,31.7,18.8,0000.0,0003.75,0010.65,0002.60
2022-05-18 04:41:00,,0827.8,5.00,0.00,29.8,28.7,00.0,38.8,31.7,18.7,0000.0,0003.78,0011.56,0002.61
2022-05-18 04:42:00,,0827.6,5.00,0.00,29.9,28.8,00.0,38.8,31.7,18.7,0000.0,0003.78,0011.84,0002.64
2022-05-18 04:43:00,,0827.7,4.99,0.00,29.9,28.8,00.0,38.8,31.7,18.6,0000.0,0003.78,0012.00,0002.66
2022-05-18 04:44:00,,0827.7,4.99,0.00,29.9,28.8,00.0,38.9,31.8,18.3,0000.0,0003.80,0011.99,0002.73
2022-05-18 04:45:00,,0827.7,5.00,0.00,29.9,28.8,00.0,38.9,31.8,18.2,0000.0,0003.88,0012.08,0002.79
2022-05-18 04:46:00,,0827.8,5.00,0.00,29.9,28.8,00.0,38.9,31.8,17.9,0000.0,0003.89,0010.76,0002.88
2022-05-18 04:47:00,,0827.7,5.00,0.00,29.9,27.5,00.0,38.9,31.7,17.7,0000.0,0003.95,0010.60,0002.99
2022-05-18 04:48:00,,0827.6,5.00,0.00,29.9,25.3,00.0,38.8,31.5,18.1,0000.0,0003.99,0010.88,0003.08
2022-05-18 04:49:00,,0827.6,5.01,0.00,29.8,25.3,00.0,38.7,31.4,18.1,0000.0,0004.04,0011.03,0003.14
2022-05-18 04:50:00,,0827.3,5.00,0.00,29.7,25.7,00.0,38.7,31.3,18.0,0000.0,0004.15,0011.83,0003.20
2022-05-18 04:51:00,,0827.3,4.99,0.00,29.6,26.1,00.0,38.7,31.2,18.1,0000.0,0004.22,0011.48,0003.25
2022-05-18 04:52:00,,0827.2,5.01,0.00,29.6,26.5,00.0,38.7,31.2,17.3,0000.0,0004.30,0010.98,0003.29
2022-05-18 04:53:00,,0827.6,5.00,0.00,29.5,26.9,00.0,38.7,31.3,17.2,0000.0,0004.33,0010.90,0003.29
2022-05-18 04:54:00,,0827.5,5.00,0.00,29.5,27.2,00.0,38.7,31.3,17.5,0000.0,0004.37,0010.53,0003.31
2022-05-18 04:55:00,,0827.5,4.99,0.00,29.5,27.4,00.0,38.7,31.3,18.2,0000.0,0004.44,0010.61,0003.33
2022-05-18 04:56:00,,0827.3,5.00,0.00,29.5,27.6,00.0,38.6,31.3,17.4,0000.0,0004.41,0010.57,0003.32
2022-05-18 04:57:00,,0827.1,5.00,0.00,29.5,27.8,00.0,38.6,31.3,15.9,0000.0,0004.35,0010.79,0003.27
2022-05-18 04:58:00,,0827.1,4.99,0.00,29.6,27.9,00.0,38.6,31.4,16.0,0000.0,0004.22,0010.66,0003.20
2022-05-18 04:59:00,,0827.6,4.99,0.00,29.6,28.0,00.0,38.6,31.4,16.3,0000.0,0004.14,0010.21,0003.14
